N1JOT Weather Reports


Display with metric or nautical units.
time (UTC)temp
F
wind
direction
speed
MPH
gust
MPH
rain 1hr
in
rain 24hr
in
rain mn
in
humidity
%
barometer
mb
20260503052603 48 283 2.0 7.0 0.00 0.00 0.00 83 1009.4
20260503052057 48 329 2.0 7.0 0.00 0.00 0.00 85 1009.4
20260503051601 48 284 0.0 3.0 0.00 0.00 0.00 87 1009.4
20260503051101 48 0 1.0 3.0 0.00 0.00 0.00 87 1009.5
20260503050609 48 0 0.0 3.0 0.00 0.00 0.00 88 1009.5
20260503045603 48 0 0.0 1.0 0.00 0.00 0.00 88 1009.8
20260503045101 48 0 0.0 1.0 0.00 0.00 0.00 88 1009.8
20260503044559 48 0 0.0 1.0 0.00 0.00 0.00 88 1009.9
20260503044058 48 0 0.0 1.0 0.00 0.00 0.00 88 1009.8
20260503043557 48 0 0.0 1.0 0.00 0.00 0.00 89 1010.0
20260503043122 48 0 0.0 1.0 0.00 0.00 0.00 89 1010.0
20260503042601 48 0 0.0 0.0 0.00 0.00 0.00 89 1010.0
20260503042101 48 0 0.0 0.0 0.00 0.00 0.00 89 1010.1
20260503041600 48 0 0.0 0.0 0.00 0.00 0.00 89 1010.2
20260503041101 48 0 0.0 1.0 0.00 0.00 0.00 89 1010.5
20260503040559 48 0 0.0 1.0 0.00 0.00 0.00 89 1010.5
20260503040104 48 198 0.0 0.0 0.00 0.00 0.00 89 1010.5
20260503035603 48 0 0.0 0.0 0.00 0.00 0.00 89 1010.4
20260503035059 48 0 0.0 2.0 0.00 0.00 0.00 89 1010.5
20260503034612 48 0 0.0 2.0 0.00 0.00 0.00 89 1010.3
20260503034101 48 0 0.0 2.0 0.00 0.00 0.00 89 1010.4
20260503033600 48 0 0.0 0.0 0.00 0.00 0.00 89 1010.3
20260503033059 48 0 0.0 1.0 0.00 0.00 0.00 89 1010.3
20260503032559 48 0 0.0 1.0 0.00 0.00 0.00 89 1010.6
20260503032104 48 0 0.0 1.0 0.00 0.00 0.00 89 1010.6
20260503031600 48 0 0.0 0.0 0.00 0.00 0.00 89 1010.5
20260503031100 48 0 0.0 0.0 0.00 0.00 0.00 89 1010.4
20260503030559 48 0 0.0 0.0 0.00 0.00 0.00 88 1010.4
20260503030059 48 0 0.0 0.0 0.00 0.00 0.00 88 1010.4
20260503025558 48 0 0.0 0.0 0.00 0.00 0.00 88 1010.6
20260503025059 49 0 0.0 0.0 0.00 0.00 0.00 88 1010.5
20260503024559 49 0 0.0 0.0 0.00 0.00 0.00 88 1010.5
20260503024103 49 0 0.0 1.0 0.00 0.00 0.00 88 1010.6
20260503023601 49 0 0.0 1.0 0.00 0.00 0.00 88 1010.6
20260503023100 49 0 0.0 0.0 0.00 0.00 0.00 87 1010.6
20260503022601 49 0 0.0 0.0 0.00 0.00 0.00 87 1010.5
20260503022059 49 0 0.0 0.0 0.00 0.00 0.00 87 1010.6
20260503021603 49 0 0.0 1.0 0.00 0.00 0.00 87 1010.6
20260503021101 49 0 0.0 1.0 0.00 0.00 0.00 87 1010.6
20260503020600 49 0 0.0 1.0 0.00 0.00 0.00 87 1010.7
20260503020101 49 0 0.0 1.0 0.00 0.00 0.00 86 1010.7
20260503015600 49 0 0.0 1.0 0.00 0.00 0.00 86 1010.9
20260503015102 49 0 0.0 1.0 0.00 0.00 0.00 86 1011.0
20260503014618 49 0 0.0 1.0 0.00 0.00 0.00 86 1011.0
20260503014057 49 0 0.0 1.0 0.00 0.00 0.00 86 1011.1
20260503013559 49 0 0.0 1.0 0.00 0.00 0.00 86 1011.0
20260503013058 49 198 0.0 0.0 0.00 0.00 0.00 85 1011.0
20260503012604 49 0 0.0 0.0 0.00 0.00 0.00 85 1010.9
20260503012102 49 0 0.0 0.0 0.00 0.00 0.00 85 1011.0
20260503011559 49 0 0.0 0.0 0.00 0.00 0.00 84 1011.0
20260503011101 50 0 0.0 0.0 0.00 0.00 0.00 84 1011.0
20260503010601 49 0 0.0 0.0 0.00 0.00 0.00 84 1011.0
20260503010103 49 0 0.0 0.0 0.00 0.00 0.00 84 1011.0
20260503005603 49 0 0.0 0.0 0.00 0.00 0.00 83 1011.0
20260503005057 50 0 0.0 0.0 0.00 0.00 0.00 83 1011.0
20260503004559 50 0 0.0 0.0 0.00 0.00 0.00 83 1011.1
20260503004059 50 0 0.0 0.0 0.00 0.00 0.00 83 1011.1
20260503003600 50 0 0.0 0.0 0.00 0.00 0.00 82 1010.9
20260503003106 50 0 0.0 0.0 0.00 0.00 0.00 82 1011.0
20260503002558 50 0 0.0 1.0 0.00 0.00 0.00 81 1011.0
20260503002101 50 0 0.0 1.0 0.00 0.00 0.00 81 1010.8
20260503001619 50 0 0.0 1.0 0.00 0.00 0.00 81 1011.0
20260503001100 50 0 0.0 1.0 0.00 0.00 0.00 81 1011.0
20260503000600 50 0 0.0 1.0 0.00 0.00 0.00 81 1011.0
20260503000121 50 0 0.0 0.0 0.00 0.00 0.00 81 1011.0
20260502235601 50 0 0.0 1.0 0.00 0.00 0.00 80 1010.9
20260502235100 50 0 0.0 1.0 0.00 0.00 0.00 80 1011.0
20260502234605 50 0 0.0 1.0 0.00 0.00 0.00 80 1011.0
20260502234100 50 0 0.0 1.0 0.00 0.00 0.00 79 1011.0
20260502233559 51 185 0.0 2.0 0.00 0.00 0.00 80 1010.9
20260502233101 51 0 0.0 2.0 0.00 0.00 0.00 79 1011.0
20260502232559 51 0 0.0 1.0 0.00 0.00 0.00 79 1010.9
20260502232100 51 0 0.0 2.0 0.00 0.00 0.00 79 1010.8
20260502231604 51 0 0.0 2.0 0.00 0.00 0.00 79 1010.9
20260502231104 51 185 0.0 2.0 0.00 0.00 0.00 78 1010.9
20260502230600 51 244 0.0 3.0 0.00 0.00 0.00 78 1010.9
20260502230100 51 192 0.0 3.0 0.00 0.00 0.00 79 1011.0
20260502225600 51 178 0.0 2.0 0.00 0.00 0.00 79 1011.1
20260502225100 51 0 0.0 2.0 0.00 0.00 0.00 80 1011.1
20260502224609 51 0 0.0 3.0 0.00 0.00 0.00 79 1010.9
20260502224103 51 0 0.0 3.0 0.00 0.00 0.00 79 1010.8
20260502223600 52 211 0.0 3.0 0.00 0.00 0.00 78 1010.7
20260502223102 52 0 0.0 3.0 0.00 0.00 0.00 78 1010.7
20260502222600 52 0 0.0 3.0 0.00 0.00 0.00 78 1010.6
20260502222059 52 0 0.0 1.0 0.00 0.00 0.00 77 1010.6
20260502221600 52 0 0.0 1.0 0.00 0.00 0.00 77 1010.6
20260502221100 52 0 0.0 2.0 0.00 0.00 0.00 77 1010.6
20260502220558 52 0 0.0 4.0 0.00 0.00 0.00 76 1010.7
20260502220100 52 0 0.0 4.0 0.00 0.00 0.00 76 1010.5
20260502215603 52 176 0.0 1.0 0.00 0.00 0.00 76 1010.4
20260502215102 52 0 0.0 4.0 0.00 0.00 0.00 75 1010.6
20260502214606 52 196 0.0 4.0 0.00 0.00 0.00 76 1010.6
20260502214103 52 131 0.0 2.0 0.00 0.00 0.00 76 1010.6
20260502213601 52 0 0.0 4.0 0.00 0.00 0.00 76 1010.7
20260502213101 52 198 0.0 4.0 0.00 0.00 0.00 75 1010.5
20260502212601 52 200 0.0 3.0 0.00 0.00 0.00 76 1010.3
20260502212100 52 153 1.0 3.0 0.00 0.00 0.00 75 1010.3
20260502211559 52 62 1.0 3.0 0.00 0.00 0.00 76 1010.3
20260502211059 52 98 0.0 3.0 0.00 0.00 0.00 76 1010.4
20260502210559 52 0 1.0 3.0 0.00 0.00 0.00 76 1010.4
20260502210133 52 115 0.0 3.0 0.00 0.00 0.00 75 1010.7
20260502205600 52 98 1.0 3.0 0.00 0.00 0.00 75 1010.7
20260502205057 53 221 0.0 3.0 0.00 0.00 0.00 74 1010.8
20260502204601 53 0 0.0 3.0 0.00 0.00 0.00 74 1010.7
20260502204103 53 0 1.0 4.0 0.00 0.00 0.00 75 1010.7
20260502203602 53 0 1.0 6.0 0.00 0.00 0.00 75 1010.6
20260502203100 53 163 0.0 7.0 0.00 0.00 0.00 75 1010.8
20260502202601 53 204 1.0 7.0 0.00 0.00 0.00 75 1010.7
20260502202103 53 132 1.0 4.0 0.00 0.00 0.00 75 1010.9
20260502201612 53 64 1.0 4.0 0.00 0.00 0.00 76 1010.9
20260502201100 53 0 0.0 4.0 0.00 0.00 0.00 76 1011.0
20260502200601 53 221 1.0 4.0 0.00 0.00 0.00 77 1011.0
20260502200058 53 0 0.0 2.0 0.00 0.00 0.00 76 1010.9
20260502195600 53 0 0.0 3.0 0.00 0.00 0.00 76 1011.0
20260502195059 53 0 0.0 3.0 0.00 0.00 0.00 75 1011.1
20260502194600 53 0 0.0 3.0 0.00 0.00 0.00 75 1011.2
20260502194100 53 0 0.0 4.0 0.00 0.00 0.00 74 1011.1
20260502193600 53 0 1.0 4.0 0.00 0.00 0.00 74 1011.2
20260502193100 53 0 0.0 4.0 0.00 0.00 0.00 72 1011.3
20260502192559 53 184 0.0 4.0 0.00 0.00 0.00 72 1011.4
20260502192100 53 198 0.0 3.0 0.00 0.00 0.00 71 1011.5
20260502191559 53 140 0.0 3.0 0.00 0.00 0.00 70 1011.6
20260502191058 53 180 0.0 6.0 0.00 0.00 0.00 69 1011.6
20260502190558 53 159 1.0 6.0 0.00 0.00 0.00 69 1011.5
20260502190100 53 158 2.0 7.0 0.00 0.00 0.00 67 1011.6
20260502185601 54 173 1.0 7.0 0.00 0.00 0.00 66 1011.5
20260502185058 53 196 1.0 7.0 0.00 0.00 0.00 66 1011.6
20260502184612 53 224 2.0 7.0 0.00 0.00 0.00 65 1011.7
20260502184058 54 164 2.0 7.0 0.00 0.00 0.00 63 1011.6
20260502183557 54 180 1.0 7.0 0.00 0.00 0.00 61 1011.7
20260502183106 55 0 1.0 7.0 0.00 0.00 0.00 62 1011.5
20260502182602 55 139 1.0 4.0 0.00 0.00 0.00 59 1011.6
20260502182101 56 101 1.0 6.0 0.00 0.00 0.00 58 1011.6
20260502181610 56 257 1.0 6.0 0.00 0.00 0.00 57 1011.6
20260502181100 56 0 0.0 4.0 0.00 0.00 0.00 59 1011.8
20260502180558 56 101 1.0 8.0 0.00 0.00 0.00 58 1011.9
20260502164100 58 205 1.0 6.0 0.00 0.00 0.00 47 1011.5
20260502163557 59 157 1.0 6.0 0.00 0.00 0.00 48 1011.4
20260502163100 59 174 1.0 7.0 0.00 0.00 0.00 51 1011.5
20260502162601 59 180 2.0 7.0 0.00 0.00 0.00 51 1011.6
20260502162101 58 0 2.0 6.0 0.00 0.00 0.00 54 1011.6
20260502161601 58 192 1.0 6.0 0.00 0.00 0.00 54 1011.7
20260502161100 59 240 2.0 7.0 0.00 0.00 0.00 56 1011.7
20260502160601 59 0 1.0 7.0 0.00 0.00 0.00 56 1011.5
20260502152101 57 148 1.0 5.0 0.00 0.00 0.00 64 1012.4
20260502151622 58 0 1.0 5.0 0.00 0.00 0.00 65 1012.2
20260502151101 57 190 1.0 5.0 0.00 0.00 0.00 66 1012.2
20260502150558 57 270 1.0 5.0 0.00 0.00 0.00 66 1012.3
20260502150108 57 0 0.0 2.0 0.00 0.00 0.00 67 1012.5
20260502130601 52 213 0.0 3.0 0.00 0.00 0.00 76 1013.0
20260502123601 51 227 1.0 8.0 0.00 0.00 0.00 75 1012.8
20260502123105 52 226 0.0 5.0 0.00 0.00 0.00 75 1012.8
20260502122604 52 186 1.0 5.0 0.00 0.00 0.00 75 1012.9
20260502122101 51 211 2.0 5.0 0.00 0.00 0.00 76 1012.8
20260502121605 51 189 1.0 5.0 0.00 0.00 0.00 76 1012.7
20260502121100 51 0 0.0 6.0 0.00 0.00 0.00 76 1012.7
20260502120600 51 0 1.0 6.0 0.00 0.00 0.00 76 1012.5
20260502115600 51 237 0.0 4.0 0.00 0.00 0.00 76 1012.5
20260502115100 50 347 1.0 4.0 0.00 0.00 0.00 77 1012.4
20260502114603 50 188 0.0 4.0 0.00 0.00 0.00 77 1012.4
20260502114100 49 0 0.0 3.0 0.00 0.00 0.00 78 1012.4
20260502113603 49 188 1.0 3.0 0.00 0.00 0.00 78 1012.3
20260502113059 49 186 0.0 3.0 0.00 0.00 0.00 78 1012.4
20260502112600 49 0 0.0 3.0 0.00 0.00 0.00 78 1012.4
20260502112100 48 194 0.0 3.0 0.00 0.00 0.00 78 1012.5
20260502111606 48 0 0.0 4.0 0.00 0.00 0.00 78 1012.5
20260502111100 48 0 0.0 5.0 0.00 0.00 0.00 78 1012.5
20260502110600 48 0 0.0 5.0 0.00 0.00 0.00 78 1012.6
20260502110104 48 0 0.0 2.0 0.00 0.00 0.00 78 1012.7
20260502105601 48 179 0.0 2.0 0.00 0.00 0.00 78 1012.5
20260502105100 48 0 0.0 2.0 0.00 0.00 0.00 78 1012.2
20260502104602 47 0 0.0 1.0 0.00 0.00 0.00 78 1012.2
20260502104100 47 0 0.0 0.0 0.00 0.00 0.00 79 1012.1
20260502103601 47 0 0.0 2.0 0.00 0.00 0.00 79 1012.1
20260502103108 46 0 0.0 2.0 0.00 0.00 0.00 80 1012.2
20260502102600 46 0 0.0 2.0 0.00 0.00 0.00 80 1012.3
20260502102057 46 0 0.0 0.0 0.00 0.00 0.00 81 1012.3
20260502101634 46 0 0.0 0.0 0.00 0.00 0.00 81 1012.1
20260502101101 46 0 0.0 0.0 0.00 0.00 0.00 81 1012.3
20260502100600 46 0 0.0 0.0 0.00 0.00 0.00 80 1012.1
20260502100120 46 0 0.0 0.0 0.00 0.00 0.00 81 1012.1
20260502091101 44 0 0.0 0.0 0.00 0.00 0.00 83 1011.9
20260502090557 44 0 0.0 0.0 0.00 0.00 0.00 83 1011.9
20260502080106 43 0 0.0 0.0 0.00 0.00 0.00 83 1012.0
20260502071059 45 0 0.0 0.0 0.00 0.00 0.00 81 1012.1
20260502070559 45 0 0.0 0.0 0.00 0.00 0.00 80 1012.1
20260502070100 45 0 0.0 0.0 0.00 0.00 0.00 80 1012.0
20260502065557 45 0 0.0 0.0 0.00 0.00 0.00 81 1012.0
20260502065103 45 0 0.0 0.0 0.00 0.00 0.00 80 1012.0
20260502064602 45 0 0.0 0.0 0.00 0.00 0.00 80 1012.0
20260502064058 45 0 0.0 0.0 0.00 0.00 0.00 81 1012.1
20260502063600 44 0 0.0 0.0 0.00 0.00 0.00 80 1012.2
20260502063059 44 0 0.0 0.0 0.00 0.00 0.00 80 1012.2
20260502062601 44 0 0.0 0.0 0.00 0.00 0.00 80 1012.1
20260502062101 44 0 0.0 0.0 0.00 0.00 0.00 81 1012.1
20260502061602 44 0 0.0 0.0 0.00 0.00 0.00 80 1012.1
20260502061057 43 0 0.0 0.0 0.00 0.00 0.00 80 1012.2
20260502060601 44 0 0.0 0.0 0.00 0.00 0.00 79 1012.3
20260502060106 44 0 0.0 0.0 0.00 0.00 0.00 79 1012.3
20260502055558 44 0 0.0 0.0 0.00 0.00 0.00 78 1012.4
20260502055100 44 0 0.0 0.0 0.00 0.00 0.00 78 1012.3
20260502054616 44 0 0.0 0.0 0.00 0.00 0.00 78 1012.2
20260502054100 44 0 0.0 0.0 0.00 0.00 0.00 77 1012.3
20260502053600 44 0 0.0 0.0 0.00 0.00 0.00 77 1012.3
20260502053116 44 0 0.0 0.0 0.00 0.00 0.00 76 1012.3